Tracking 31027 objects as of 19-Jul-2025
HD Live streaming from Space Station
objects crossing your sky now

DRAGRACER 2(AUGURY)

Track DRAGRACER 2(AUGURY) now!
10-day predictions


NORAD ID: 46955
Int'l Code: 2020-085AC
Perigee: 415.4 km
Apogee: 427.1 km
Inclination: 97.6 °
Period: 92.8 minutes
Semi major axis: 6792 km
RCS: Unknown
Launch date: November 20, 2020
Source: United States (US)
Launch site: Rocket Lab Launch Complex (RLLC)
Your satellite tracking list
FLOCK 3P 17
Track 1 satellite(s)




NASA's NSSDC Master Catalog

Two Line Element Set (TLE):
1 46955U 20085AC  25199.54364225  .00012637  00000-0  21984-3 0  9997
2 46955  97.5807   8.1524 0008587  61.9199 298.2919 15.50896880259859
Source of the keplerian elements: AFSPC